Flag for Kazakhstan Weather past 2 weeks in Almaty, Kazakhstan

Now
37 °F

Partly sunny.


Feels Like: 35 °F
Forecast: 26 / 50 °F
Wind: 3 mph from Northeast

Location: Almaty Airport

Current Time: Mar 3, 2015 at 1:26:31 PM

Latest Report: Mar 3, 2015 at 1:00 PM


Visibility: N/A

Pressure: 30.01 "Hg

Humidity: 52%

Dew point: 21 °F

Location of AlmatyLocation

Historic Weather in Almaty — Graph

°F

Almaty temperature yesterday

Maximum temperature yesterday: 43 °F (at 3:00 PM)
Minimum temperature yesterday: 23 °F (at 3:30 AM)
Average temperature yesterday: 32 °F

Past Weeks' High & Low Weather Summary

 TemperatureHumidityPressure
High48 °F (Feb 16, 1:00 PM)93% (Feb 16, 10:00 PM)30.48 "Hg (Feb 16, 10:00 PM)
Low21 °F (Feb 27, 6:30 AM)33% (Feb 28, 4:00 PM)29.89 "Hg (Feb 16, 3:30 PM)
Average33 °F74%30.17 "Hg
* Reported Feb 16 12:00 Noon — Mar 3 12:00 Noon, Almaty, Weather by CustomWeather, © 2015

Note: Actual official high and low records may vary slightly from our data, if they occured in-between our weather recording intervals... More about our weather records

Advertising

Almaty weather history for previous 24 hours

 ConditionsComfort  
Time TempWeatherWind HumidityBarometerVisibility
12:00 PM
Tue, Mar 3
37 °FPartly sunny.3 mph52%30.04 "HgN/A
11:30 AM36 °FBroken clouds.3 mph56%30.04 "HgN/A
11:00 AM34 °FPartly sunny.6 mph60%30.01 "HgN/A
10:30 AM34 °FPartly sunny.3 mph60%30.01 "HgN/A
10:00 AM32 °FPartly sunny.3 mph64%30.01 "HgN/A
9:30 AM32 °FPartly sunny.3 mph60%30.01 "HgN/A
9:00 AM30 °FPartly sunny.1 mph64%30.01 "Hg3 mi
8:30 AM28 °FIce fog.1 mph74%30.01 "Hg2 mi
8:00 AM27 °FIce fog.3 mph80%30.01 "Hg1 mi
7:30 AM27 °FIce fog.1 mph80%30.01 "Hg3 mi
7:00 AM27 °FIce fog.1 mph80%30.01 "Hg3 mi
6:30 AM27 °FIce fog.No wind80%29.98 "Hg3 mi
6:00 AM27 °FIce fog.3 mph80%29.98 "Hg2 mi
5:30 AM27 °FIce fog.3 mph80%29.98 "Hg2 mi
5:00 AM27 °FIce fog.1 mph80%29.98 "Hg3 mi
4:30 AM27 °FIce fog.No wind80%29.98 "Hg3 mi
4:00 AM27 °FIce fog.3 mph80%29.98 "Hg3 mi
3:30 AM27 °FIce fog.3 mph80%29.98 "Hg3 mi
3:00 AM27 °FIce fog.1 mph80%29.98 "Hg3 mi
2:30 AM28 °FIce fog.1 mph74%29.98 "Hg3 mi
2:00 AM27 °FIce fog.3 mph80%29.98 "Hg3 mi
1:30 AM28 °FPartly cloudy.3 mph74%29.98 "HgN/A
1:00 AM28 °FPartly cloudy.3 mph69%29.98 "HgN/A
12:30 AM28 °FPartly cloudy.1 mph69%29.98 "HgN/A
12:00 AM28 °FPartly cloudy.3 mph69%29.98 "HgN/A
11:30 PM
Mon, Mar 2
28 °FPartly cloudy.3 mph74%29.98 "HgN/A
11:00 PM30 °FPartly cloudy.3 mph69%29.98 "HgN/A
10:30 PM30 °FPartly cloudy.No wind69%29.98 "HgN/A
10:00 PM30 °FPartly cloudy.3 mph69%29.98 "HgN/A
9:30 PM30 °FPartly cloudy.3 mph69%29.98 "HgN/A
9:00 PM32 °FPartly cloudy.8 mph69%29.98 "HgN/A
8:30 PM32 °FPartly cloudy.8 mph69%29.98 "HgN/A
8:00 PM34 °FPartly cloudy.1 mph65%29.95 "HgN/A
7:30 PM34 °FPartly cloudy.3 mph65%29.95 "HgN/A
7:00 PM36 °FPartly cloudy.6 mph65%29.95 "HgN/A
6:30 PM36 °FBroken clouds.8 mph65%29.92 "HgN/A
6:00 PM41 °FBroken clouds.3 mph53%29.92 "HgN/A
5:30 PM41 °FBroken clouds.6 mph49%29.92 "HgN/A
5:00 PM43 °FBroken clouds.6 mph46%29.92 "HgN/A
4:30 PM43 °FBroken clouds.6 mph46%29.92 "HgN/A
4:00 PM43 °FBroken clouds.8 mph42%29.92 "HgN/A
3:30 PM43 °FBroken clouds.6 mph42%29.89 "HgN/A
3:00 PM43 °FBroken clouds.6 mph46%29.89 "HgN/A
2:30 PM41 °FBroken clouds.3 mph49%29.92 "HgN/A
2:00 PM41 °FBroken clouds.6 mph49%29.92 "HgN/A
1:30 PM39 °FBroken clouds.6 mph52%29.92 "HgN/A
1:00 PM39 °FBroken clouds.6 mph52%29.95 "HgN/A
Weather by CustomWeather, © 2015

See weather overviewHow to use our weather pages